[[{"header":{"parameterUnit":"m.s-1","parameterCategory":1,"la1":30.2991,"la2":30.254,"lo1":-89.0895,"lo2":-89.0444,"dy":0.0017,"dx":0.0017,"nx":28,"ny":28,"refTime":"2024-07-06T09:00:00:Z","depth":0,"parameterNumber":2,"parameterNumberName":"U-component_of_WINDS"},"data":[0,0,0,0,0,0,0,0,0,0,0,0,0,0,0,0,0,0,0,0,0,0,0,0,0,0,0,0,0,0,0,0,0,0,0,0,0,0,0,0,0,0,0,0,0,0,0,0,0,0,0,0,0,0,0,0,0,0,-0.2553,-0.2552,0,-0.2426,-0.2425,-0.2424,-0.2398,-0.2399,-0.24,-0.2401,-0.2265,-0.2261,-0.2256,0,0,0,0,0,0,0,0,0,0,0,0,0,-0.2766,-0.2763,-0.2553,-0.2552,-0.255,-0.2427,-0.2425,-0.2423,-0.2398,-0.2399,-0.24,-0.2401,-0.2267,-0.2261,-0.2256,0,0,0,0,0,0,0,0,0,0,0,0,0,-0.266,-0.2761,-0.2553,-0.2523,-0.2519,-0.2427,-0.2425,-0.2423,-0.2397,-0.2399,-0.24,-0.2402,-0.2268,-0.2262,-0.2255,-0.2184,0,0,-0.2234,-0.2231,0,0,0,0,0,0,0,0,-0.2666,-0.2652,-0.2529,-0.2525,-0.252,-0.243,-0.245,-0.2342,-0.2397,-0.2443,-0.2401,-0.2402,-0.2318,-0.2307,-0.228,-0.2177,-0.2171,-0.2234,-0.223,-0.2227,-0.2225,0,0,0,0,0,0,0,-0.2673,-0.2657,-0.2503,-0.2527,-0.2521,-0.2513,-0.2499,-0.243,-0.2374,-0.2439,-0.2437,-0.2423,-0.2316,-0.2287,-0.2277,-0.2169,-0.2234,-0.2228,-0.2224,-0.2221,-0.1998,-0.1996,0,0,0,0,0,0,-0.2687,-0.2664,-0.2507,-0.2499,-0.2598,-0.2508,-0.2493,-0.2457,-0.2375,-0.2364,-0.2422,-0.2422,-0.2298,-0.2285,-0.2272,-0.218,-0.2227,-0.222,-0.2216,-0.1999,-0.1997,-0.1995,0,0,0,0,0,0,-0.2692,-0.2673,-0.2512,-0.2581,-0.256,-0.2503,-0.2463,-0.2454,-0.2424,-0.2361,-0.2351,-0.2403,-0.2298,-0.2282,-0.2205,-0.2175,-0.2217,-0.2211,-0.2002,-0.1999,-0.1996,-0.1998,0,0,0,0,0,0,-0.2698,-0.2675,-0.2649,-0.258,-0.2556,-0.245,-0.2461,-0.245,-0.2414,-0.2413,-0.234,-0.233,-0.2298,-0.2216,-0.2199,-0.2167,-0.2206,-0.2004,-0.2,-0.1997,-0.2,-0.1995,-0.1991,0,0,0,0,0,-0.2706,-0.2654,-0.2648,-0.2629,-0.2523,-0.2448,-0.2434,-0.24,-0.2411,-0.2383,-0.2342,-0.2332,-0.2182,-0.2208,-0.2189,-0.2154,-0.2006,-0.2001,-0.1997,-0.2002,-0.1996,-0.1992,0,0,0,0,0,0,-0.2719,-0.2645,-0.2637,-0.2562,-0.2512,-0.2444,-0.2408,-0.2396,-0.234,-0.2341,-0.23,-0.2284,-0.2209,-0.2174,-0.2205,-0.2079,-0.2094,-0.2086,-0.2104,-0.2098,-0.2094,-0.2103,-0.22,0,0,0,0,0,-0.2714,-0.2662,-0.2599,-0.2538,-0.2514,-0.2465,-0.2431,-0.241,-0.2355,-0.2333,-0.2287,-0.2232,-0.2172,-0.2134,-0.2076,-0.1996,-0.1977,-0.1962,-0.1958,-0.1955,-0.1947,-0.1899,-0.189,-0.1981,-0.1981,-0.1982,0,0,-0.2702,-0.2654,-0.2624,-0.254,-0.2498,-0.2442,-0.2447,-0.2389,-0.2346,-0.2324,-0.2249,-0.2213,-0.2149,-0.207,-0.2033,-0.2038,-0.1918,-0.1949,-0.1947,-0.1941,-0.1894,-0.1885,-0.1877,-0.1979,-0.1979,-0.198,0,0,-0.265,-0.2611,-0.2555,-0.2513,-0.245,-0.2418,-0.2405,-0.2338,-0.2314,-0.2239,-0.222,-0.2167,-0.2066,-0.2021,-0.1984,-0.1914,-0.1901,-0.1896,-0.1872,-0.1826,-0.1819,-0.1812,-0.1784,-0.1774,-0.189,-0.189,-0.189,0,-0.2642,-0.2559,-0.2527,-0.2469,-0.2431,-0.241,-0.2351,-0.2312,-0.2233,-0.2206,-0.2214,-0.2085,-0.2041,-0.1949,-0.1932,-0.1905,-0.1885,-0.1903,-0.1823,-0.1816,-0.1809,-0.1781,-0.1771,-0.1889,-0.1889,-0.1889,-0.1889,0,-0.255,-0.2493,-0.2455,-0.238,-0.2339,-0.2281,-0.2237,-0.2198,-0.218,-0.2146,-0.2068,-0.2014,-0.1944,-0.1921,-0.1902,-0.1825,-0.1831,-0.1832,-0.1845,-0.18,-0.1774,-0.1763,-0.1888,-0.1889,-0.1889,-0.1889,0,0,-0.2503,-0.2411,-0.2397,-0.2362,-0.2291,-0.2245,-0.2185,-0.2117,-0.2083,-0.2029,-0.1975,-0.1889,-0.1889,-0.1848,-0.1824,-0.1783,-0.1727,-0.1788,-0.1786,-0.1776,-0.1635,-0.1633,-0.1622,-0.1719,-0.1717,-0.1715,-0.1639,0,-0.244,-0.2334,-0.2303,-0.2212,-0.2157,-0.2136,-0.2083,-0.2032,-0.1998,-0.1945,-0.1907,-0.1846,-0.1852,-0.1826,-0.1785,-0.1743,-0.1697,-0.1748,-0.1665,-0.1663,-0.1679,-0.1608,-0.1606,-0.1537,-0.1629,-0.1627,-0.1626,0,-0.2353,-0.2299,-0.2203,-0.2137,-0.2112,-0.2066,-0.1999,-0.195,-0.189,-0.1869,-0.1822,-0.1801,-0.1734,-0.1754,-0.1659,-0.1694,-0.1658,-0.1632,-0.1629,-0.1617,-0.164,-0.1592,-0.1514,-0.1503,-0.161,-0.1611,-0.1612,0,-0.2325,-0.2227,-0.2156,-0.2127,-0.2049,-0.2016,-0.1982,-0.1924,-0.1885,-0.1827,-0.18,-0.1734,-0.1698,-0.1646,-0.1607,-0.1625,-0.1514,-0.1531,-0.1491,-0.1492,-0.1467,-0.1468,-0.1379,-0.1449,-0.1449,-0.1449,-0.1449,0,-0.2257,-0.2198,-0.2142,-0.2098,-0.2031,-0.1995,-0.1928,-0.1893,-0.1841,-0.1788,-0.1766,-0.1716,-0.1669,-0.1611,-0.158,-0.1505,-0.1489,-0.1467,-0.1459,-0.1467,-0.147,-0.1441,-0.1444,-0.1446,-0.1447,-0.1448,-0.1448,0,-0.2212,-0.2173,-0.2094,-0.2027,-0.2008,-0.1961,-0.1902,-0.1858,-0.1824,-0.1756,-0.1738,-0.1683,-0.1615,-0.1572,-0.1484,-0.1463,-0.1379,-0.1374,-0.1399,-0.1395,-0.1356,-0.1359,-0.1243,-0.1225,-0.131,-0.1309,-0.1308,0,-0.217,-0.2125,-0.2053,-0.2016,-0.1982,-0.1924,-0.1883,-0.1845,-0.1804,-0.1732,-0.1695,-0.1625,-0.1567,-0.1458,-0.1409,-0.1341,-0.1332,-0.1296,-0.1321,-0.133,-0.1327,-0.1329,-0.1323,-0.1291,-0.129,-0.129,-0.1289,0,-0.2098,-0.2081,-0.2025,-0.1961,-0.1914,-0.1862,-0.1809,-0.178,-0.1732,-0.1686,-0.1617,-0.1572,-0.1482,-0.1412,-0.134,-0.1301,-0.1285,-0.1282,-0.1268,-0.1275,-0.1291,-0.1278,-0.1385,-0.1284,-0.1285,-0.1285,-0.1285,-0.1286,-0.2052,-0.2009,-0.1951,-0.1889,-0.1845,-0.1796,-0.175,-0.1711,-0.1653,-0.1578,-0.1559,-0.1485,-0.1424,-0.1325,-0.1285,-0.1225,-0.1229,-0.1211,-0.1206,-0.1201,-0.1198,-0.1303,-0.1212,-0.1212,-0.1212,-0.1212,-0.1212,0,-0.1976,-0.1938,-0.1881,-0.1808,-0.1758,-0.1751,-0.1692,-0.1649,-0.1586,-0.1531,-0.1475,-0.1393,-0.1324,-0.127,-0.1199,-0.1161,-0.1151,-0.1143,-0.1144,-0.1134,-0.12,-0.1218,-0.1151,-0.1151,-0.1151,-0.1151,-0.1151,-0.1151,-0.1931,-0.1857,-0.1833,-0.1737,-0.1698,-0.1627,-0.1594,-0.1547,-0.1503,-0.1414,-0.1357,-0.1323,-0.1267,-0.1192,-0.1127,-0.1113,-0.1086,-0.1078,-0.1061,-0.1123,-0.113,-0.1136,-0.1152,-0.1073,-0.1073,-0.1,-0.0999,-0.0999]},{"header":{"parameterUnit":"m.s-1","parameterCategory":1,"la1":30.2991,"la2":30.254,"lo1":-89.0895,"lo2":-89.0444,"dy":0.0017,"dx":0.0017,"nx":28,"ny":28,"refTime":"2024-07-06T09:00:00:Z","depth":0,"parameterNumber":3,"parameterNumberName":"V-component_of_WINDS"},"data":[0,0,0,0,0,0,0,0,0,0,0,0,0,0,0,0,0,0,0,0,0,0,0,0,0,0,0,0,0,0,0,0,0,0,0,0,0,0,0,0,0,0,0,0,0,0,0,0,0,0,0,0,0,0,0,0,0,0,-0.9822,-0.9822,0,-0.9842,-0.9842,-0.9842,-0.9911,-0.9912,-0.9914,-0.9915,-0.9931,-0.993,-0.9929,0,0,0,0,0,0,0,0,0,0,0,0,0,-0.984,-0.9839,-0.9822,-0.9822,-0.9822,-0.9841,-0.9842,-0.9842,-0.991,-0.9912,-0.9914,-0.9916,-0.9932,-0.9931,-0.9929,0,0,0,0,0,0,0,0,0,0,0,0,0,-0.9843,-0.9839,-0.9822,-0.9859,-0.9862,-0.9841,-0.9842,-0.9842,-0.991,-0.9912,-0.9915,-0.9917,-0.9932,-0.9931,-0.9929,-0.9873,0,0,-0.9925,-0.9924,0,0,0,0,0,0,0,0,-0.9842,-0.9842,-0.9853,-0.9856,-0.986,-0.9876,-0.9854,-0.9852,-0.9909,-0.9892,-0.9915,-0.9918,-0.9911,-0.9911,-0.991,-0.9874,-0.9874,-0.9924,-0.9923,-0.9923,-0.9922,0,0,0,0,0,0,0,-0.9842,-0.9842,-0.983,-0.9853,-0.9857,-0.9873,-0.9876,-0.9854,-0.9888,-0.9893,-0.9899,-0.99,-0.9913,-0.9911,-0.9911,-0.9875,-0.9924,-0.9923,-0.9922,-0.9922,-0.9791,-0.9788,0,0,0,0,0,0,-0.9837,-0.9841,-0.9829,-0.983,-0.9857,-0.9871,-0.9874,-0.9869,-0.9888,-0.9894,-0.9898,-0.9903,-0.9912,-0.9912,-0.9911,-0.9844,-0.9923,-0.9921,-0.9921,-0.9793,-0.979,-0.9788,0,0,0,0,0,0,-0.9837,-0.9836,-0.9828,-0.9837,-0.9837,-0.9868,-0.9861,-0.9868,-0.9866,-0.9892,-0.9898,-0.989,-0.9914,-0.9914,-0.9882,-0.9846,-0.9921,-0.9919,-0.9796,-0.9792,-0.9789,-0.9711,0,0,0,0,0,0,-0.9838,-0.9835,-0.9815,-0.9836,-0.9836,-0.9799,-0.9859,-0.9866,-0.9863,-0.987,-0.9886,-0.989,-0.9916,-0.9884,-0.988,-0.9845,-0.9918,-0.98,-0.9795,-0.979,-0.9717,-0.9705,-0.9695,0,0,0,0,0,-0.9838,-0.9792,-0.9813,-0.9812,-0.9812,-0.9797,-0.9797,-0.9828,-0.986,-0.9839,-0.9856,-0.989,-0.9851,-0.988,-0.9876,-0.984,-0.9802,-0.9796,-0.9791,-0.9722,-0.9707,-0.9695,0,0,0,0,0,0,-0.9764,-0.9795,-0.982,-0.9779,-0.9785,-0.9808,-0.9783,-0.9813,-0.9808,-0.9815,-0.9853,-0.9856,-0.9818,-0.9827,-0.9858,-0.9786,-0.9832,-0.9825,-0.9781,-0.9767,-0.9757,-0.9754,-0.9917,0,0,0,0,0,-0.9744,-0.973,-0.9757,-0.9719,-0.9721,-0.9751,-0.9746,-0.977,-0.9777,-0.9779,-0.9794,-0.9798,-0.9787,-0.9778,-0.977,-0.972,-0.9722,-0.9693,-0.9682,-0.9673,-0.9666,-0.9637,-0.9623,-0.9769,-0.9769,-0.9769,0,0,-0.97,-0.9715,-0.9704,-0.9704,-0.9712,-0.9695,-0.9753,-0.9733,-0.972,-0.9776,-0.9746,-0.9757,-0.9764,-0.9722,-0.9705,-0.9728,-0.9627,-0.9666,-0.9658,-0.9656,-0.963,-0.9616,-0.9604,-0.9765,-0.9766,-0.9766,0,0,-0.9611,-0.9623,-0.9591,-0.9597,-0.9608,-0.9629,-0.9621,-0.964,-0.9649,-0.9621,-0.9662,-0.9647,-0.9628,-0.963,-0.9629,-0.9542,-0.9571,-0.9538,-0.9479,-0.9451,-0.9439,-0.9429,-0.9394,-0.9382,-0.9531,-0.9531,-0.9531,0,-0.9555,-0.9532,-0.957,-0.9547,-0.9545,-0.9597,-0.9563,-0.9568,-0.9574,-0.9571,-0.9598,-0.9574,-0.9583,-0.9541,-0.9519,-0.9518,-0.9508,-0.9534,-0.9438,-0.9428,-0.9419,-0.9387,-0.9374,-0.9527,-0.9527,-0.9528,-0.9528,0,-0.9461,-0.9445,-0.9418,-0.9423,-0.9419,-0.9391,-0.9423,-0.9414,-0.9439,-0.9456,-0.9424,-0.9437,-0.9431,-0.9424,-0.9448,-0.9385,-0.9399,-0.9432,-0.9478,-0.94,-0.937,-0.9358,-0.952,-0.9522,-0.9523,-0.9524,0,0,-0.9323,-0.9352,-0.934,-0.9343,-0.9359,-0.9346,-0.932,-0.9315,-0.9305,-0.9309,-0.9285,-0.9268,-0.9298,-0.9297,-0.9322,-0.9298,-0.9224,-0.9334,-0.9334,-0.9309,-0.9151,-0.9123,-0.9108,-0.9245,-0.9243,-0.9242,-0.9149,0,-0.9236,-0.9194,-0.9227,-0.9178,-0.9162,-0.9211,-0.9188,-0.9194,-0.921,-0.9198,-0.9215,-0.9201,-0.9244,-0.9243,-0.9221,-0.9237,-0.9192,-0.9245,-0.9221,-0.922,-0.9214,-0.9093,-0.9064,-0.8976,-0.9138,-0.9136,-0.9135,0,-0.9128,-0.9127,-0.9076,-0.9094,-0.9089,-0.9067,-0.9065,-0.9054,-0.9061,-0.9074,-0.9073,-0.9104,-0.9078,-0.9127,-0.9089,-0.9125,-0.9118,-0.9124,-0.9121,-0.9117,-0.917,-0.9082,-0.8949,-0.8934,-0.9117,-0.9119,-0.912,0,-0.9028,-0.9014,-0.8982,-0.8983,-0.9004,-0.8988,-0.8995,-0.9006,-0.9,-0.8998,-0.8994,-0.8989,-0.8985,-0.8979,-0.9007,-0.904,-0.8965,-0.9017,-0.8972,-0.8971,-0.895,-0.8951,-0.8811,-0.8952,-0.8953,-0.8953,-0.8953,0,-0.8925,-0.889,-0.8937,-0.8916,-0.8879,-0.8918,-0.8879,-0.8893,-0.8901,-0.8883,-0.8926,-0.8907,-0.8948,-0.8933,-0.8955,-0.8919,-0.8918,-0.8925,-0.8931,-0.8919,-0.8917,-0.8912,-0.8917,-0.8949,-0.895,-0.8951,-0.8951,0,-0.8805,-0.8835,-0.8802,-0.8825,-0.8831,-0.8802,-0.8821,-0.8802,-0.8822,-0.8797,-0.8794,-0.8823,-0.8808,-0.8837,-0.8825,-0.884,-0.8788,-0.8805,-0.8785,-0.8788,-0.8741,-0.8743,-0.8589,-0.8569,-0.8727,-0.8726,-0.8724,0,-0.8735,-0.871,-0.8731,-0.8722,-0.8728,-0.8713,-0.8708,-0.8746,-0.8738,-0.8745,-0.8724,-0.8713,-0.8705,-0.8678,-0.8697,-0.8688,-0.8702,-0.8649,-0.8701,-0.8689,-0.8697,-0.8696,-0.8692,-0.8637,-0.8635,-0.8633,-0.8632,0,-0.8606,-0.8622,-0.8614,-0.861,-0.8602,-0.8601,-0.8603,-0.8593,-0.8633,-0.8622,-0.8607,-0.8601,-0.8589,-0.8576,-0.8571,-0.8578,-0.8609,-0.8616,-0.8605,-0.859,-0.8578,-0.858,-0.8751,-0.8619,-0.862,-0.8621,-0.8622,-0.8622,-0.8506,-0.8485,-0.8497,-0.8485,-0.8491,-0.8491,-0.8474,-0.8492,-0.8481,-0.8474,-0.8498,-0.8477,-0.8484,-0.8481,-0.8485,-0.8468,-0.8491,-0.8475,-0.847,-0.8465,-0.8455,-0.8585,-0.8467,-0.8468,-0.8468,-0.8469,-0.8469,0,-0.8376,-0.8387,-0.8376,-0.8377,-0.8367,-0.8402,-0.8406,-0.8394,-0.8376,-0.8381,-0.8373,-0.8355,-0.8342,-0.8361,-0.8351,-0.8334,-0.8348,-0.833,-0.8329,-0.8329,-0.8437,-0.8446,-0.8318,-0.8318,-0.8318,-0.8318,-0.8318,-0.8318,-0.8307,-0.8273,-0.8291,-0.8259,-0.8269,-0.825,-0.8248,-0.8248,-0.8252,-0.8231,-0.8221,-0.8234,-0.8244,-0.8235,-0.8225,-0.823,-0.8223,-0.8198,-0.8208,-0.8308,-0.8322,-0.8336,-0.8345,-0.8197,-0.8197,-0.8102,-0.8101,-0.81]}]]